CAPE
482 27 0 0 0 0 0 0 0 0 0 0 0 17 0 115 124 181 593 1024 877 1241 1622 1698 2172 2170 2009 1919 1402 1480 1244 930 587 291 180 168 136 24 5 6 11 8 5 5 13 10 5 0 0
470 6 0 0 0 0 0 0 0 0 0 0 0 0 0 35 524 778 956 1091 1041 1326 1624 1615 2297 2283 2031 1880 1369 1117 714 453 425 115 171 168 387 81 5 1 2 6 4 1 7 5 0 0 0
392 0 0 0 2 0 0 0 0 0 0 0 1 99 227 532 724 856 891 1186 1039 1394 1482 1775 2392 2311 2056 1840 1693 1173 789 524 262 104 34 140 565 203 15 2 0 0 0 0 1 1 3 3 2
158 30 0 1 8 0 0 0 0 0 0 0 0 277 675 662 825 802 1159 1296 1163 1436 1632 1855 2499 2405 2151 1931 1774 1431 1009 463 134 32 4 98 540 300 5 0 0 0 0 0 2 3 3 1 44
120 66 1 0 0 2 0 0 0 0 0 0 2 301 720 870 823 1153 1261 1223 1239 1336 1496 1662 2479 2446 2258 2112 1833 1732 1040 384 194 132 45 111 582 394 54 0 0 0 0 0 5 5 3 0 69
150 62 18 0 0 0 0 0 0 0 0 0 55 381 814 875 1340 1502 1795 1391 1217 1221 1329 1779 2107 2182 2163 2041 1966 1313 1076 568 451 456 302 226 771 436 107 52 40 0 0 0 0 1 0 0 13
177 46 6 7 0 0 0 0 0 0 0 0 139 324 959 1069 1420 1896 1541 1320 1304 1263 1298 1534 1734 1679 1816 1601 1365 1210 1035 792 904 917 818 746 896 467 137 85 69 56 0 0 10 13 9 0 0
184 133 65 51 19 0 0 0 0 0 0 21 532 475 965 1068 1422 1804 1650 1396 1219 1199 1406 1434 1532 1390 1224 1198 905 840 624 524 600 661 512 432 413 336 228 118 96 64 31 21 0 12 13 4 0
34 141 100 59 27 5 0 0 0 0 0 5 88 82 180 597 1834 1704 1619 1133 1314 1334 1585 1346 1487 1298 1018 983 702 274 218 554 584 113 117 139 271 219 73 48 72 60 28 21 13 10 30 14 0
130 95 57 64 25 25 6 0 4 0 0 0 0 50 504 1090 1797 1854 1379 1544 1678 1310 1214 1313 1386 1269 1198 911 666 412 107 182 286 254 111 66 96 92 66 58 33 37 24 13 7 10 11 2 0
117 2 48 44 0 20 36 21 0 0 0 0 5 47 492 1160 1604 1473 1473 1187 1060 1136 1014 1158 1433 1370 1184 935 793 563 271 41 42 112 111 64 63 68 46 41 25 25 0 4 0 0 0 0 0
126 88 41 102 104 84 72 6 0 0 0 0 0 31 195 814 1369 1697 1233 1127 949 999 1013 971 1156 1464 1254 1030 853 626 397 230 82 30 21 36 35 29 23 8 0 0 0 0 0 0 0 0 0
84 123 95 42 29 34 24 33 5 0 0 0 0 21 1 525 776 1262 1214 1377 1234 1043 1233 907 1133 1123 1341 1225 859 748 597 392 284 102 44 51 54 45 25 9 0 0 0 0 0 0 0 0 0
11 121 132 49 31 13 28 19 3 0 0 0 0 0 11 185 424 578 991 1370 1203 1065 1120 952 1027 1141 1319 1177 1007 949 880 710 459 310 185 54 51 48 27 11 0 0 0 0 0 0 0 0 0
54 88 129 74 69 52 0 0 0 0 0 0 0 4 15 152 251 338 745 1001 1243 844 1040 1057 857 1087 1284 1138 1210 1104 1058 851 635 518 349 257 146 100 34 28 0 0 0 0 0 0 0 0 0
75 53 87 99 47 25 13 12 15 0 0 0 0 0 15 89 122 193 397 784 1034 1287 1557 1574 1179 1240 1150 1328 1413 1259 1126 943 825 747 566 390 313 248 164 61 35 6 0 0 0 0 0 0 0
97 25 30 72 54 32 2 6 3 0 0 0 0 0 10 108 53 93 143 575 1009 1155 1285 1269 1109 1093 1436 1519 1505 1364 1133 959 901 886 810 664 455 348 321 271 176 79 42 37 32 12 0 28 45
14 36 33 27 4 0 2 1 0 0 0 0 0 0 1 69 58 67 70 236 771 1116 1231 1130 941 1107 1198 1442 1456 1469 1334 1007 906 929 881 758 616 430 399 342 311 212 72 65 66 58 64 75 82
37 42 42 20 2 8 1 0 0 0 0 0 0 1 0 20 44 52 101 265 403 438 676 761 939 1097 1227 1242 1282 1279 1223 1111 1101 1029 942 770 610 390 254 268 256 186 128 147 148 110 106 74 5
24 26 0 0 0 18 3 0 0 0 0 0 0 0 0 6 20 41 108 175 251 279 339 415 639 953 987 1037 1154 1184 1169 1116 1014 886 766 682 665 523 393 397 336 242 231 174 124 69 38 11 2
13 0 0 0 0 23 0 0 0 0 0 0 0 0 0 9 1 12 51 50 27 127 288 378 510 616 743 775 801 846 776 716 727 699 583 517 492 482 500 430 442 352 239 246 203 181 123 149 188
0 0 0 1 16 0 3 0 0 0 0 0 0 0 0 0 7 11 11 10 1 0 2 3 161 467 670 754 861 894 714 816 558 500 238 207 308 290 229 110 182 560 451 351 207 333 203 328 219
14 0 11 10 40 20 0 0 0 0 0 0 0 0 0 0 10 12 5 0 0 0 0 0 0 4 160 304 216 54 0 0 0 0 0 0 0 0 0 0 0 2 1 46 79 199 197 108 68
6 6 6 6 24 0 0 0 0 0 0 0 0 0 0 0 28 30 4 0 0 0 0 0 0 0 0 0 0 0 0 0 0 0 0 0 0 0 0 0 0 1 3 3 5 33 46 127 35
55 62 0 0 0 0 0 0 0 0 0 0 0 0 0 3 3 3 0 0 0 0 0 0 0 0 0 0 0 0 0 0 0 0 0 0 0 0 0 0 0 0 0 0 1 14 6 8 28
25 27 0 0 0 0 0 0 0 0 0 0 0 0 0 0 0 0 0 0 0 0 0 0 0 0 0 0 0 0 0 0 0 0 0 0 0 0 0 0 0 0 0 0 0 2 6 8 19
0 1 0 0 0 0 0 0 0 0 0 0 0 0 0 0 0 0 0 0 0 0 0 0 0 0 0 0 0 0 0 0 0 0 0 0 0 0 0 0 0 0 0 0 0 0 1 4 12
0 0 0 0 0 0 0 0 0 0 0 0 0 0 0 0 0 0 0 0 0 0 0 0 0 0 0 0 0 0 0 0 0 0 0 0 0 0 0 0 0 0 0 0 0 0 0 0 1
0 0 0 0 0 0 0 0 0 0 0 0 0 0 0 0 0 0 0 0 0 0 0 0 0 0 0 0 0 0 0 0 0 0 0 0 0 0 0 0 0 0 0 0 0 0 0 0 0
0 0 0 0 0 0 0 0 0 0 0 0 0 0 0 0 0 0 0 0 0 0 0 0 0 0 0 0 0 0 0 0 0 0 0 0 0 0 0 0 0 0 0 0 0 0 0 0 0
CIN
-36 -203 -0 -0 -0 -0 -0 -0 -0 -0 -0 -0 -0 -14 -0 -46 -48 -15 -282 -182 -153 -93 -41 -12 -1 -0 -0 -0 -0 -0 -0 -0 -1 -20 -56 -53 -78 -231 -0 -0 -0 -0 -0 -0 -0 -0 -0 -0 -0
-32 -210 -0 -0 -0 -0 -0 -0 -0 -0 -0 -0 -0 -0 -0 -38 -163 -256 -211 -181 -150 -87 -49 -27 -1 -0 -0 -0 -0 -0 -4 -20 -22 -100 -61 -53 -10 -115 -126 -0 -0 -0 -0 -0 -0 -0 -0 -0 -0
-39 -8 -0 -0 -25 -0 -0 -0 -0 -0 -0 -0 -5 -131 -87 -70 -206 -200 -207 -173 -142 -79 -58 -29 -0 -0 -0 -0 -0 -0 -11 -33 -57 -118 -199 -76 -10 -35 -234 -0 -0 -0 -0 -0 -0 -0 -0 -0 -0
-26 -59 -0 -18 -29 -0 -0 -0 -0 -0 -0 -0 -0 -41 -109 -204 -184 -190 -162 -135 -118 -68 -48 -40 -1 -0 -0 -0 -0 -0 -16 -58 -117 -237 -314 -133 -21 -26 -0 -0 -0 -0 -0 -0 -0 -0 -0 -0 -54
-53 -55 -0 -0 -0 -40 -0 -0 -0 -0 -0 -0 -8 -50 -88 -157 -196 -145 -134 -128 -96 -70 -55 -41 -2 -0 -0 -0 -0 -0 -24 -73 -114 -148 -217 -124 -34 -42 -202 -0 -0 -0 -0 -0 -0 -0 -0 -0 -62
-22 -3 -0 -0 -0 -0 -0 -0 -0 -0 -0 -0 -103 -52 -78 -148 -92 -72 -54 -85 -108 -87 -74 -30 -12 -3 -2 -0 -0 -20 -33 -55 -70 -70 -80 -87 -39 -65 -188 -112 -119 -0 -0 -0 -0 -0 -0 -0 -27
-11 -3 -0 -0 -0 -0 -0 -0 -0 -0 -0 -0 -151 -33 -51 -72 -48 -12 -38 -64 -70 -69 -69 -39 -22 -22 -9 -14 -20 -31 -42 -53 -36 -30 -29 -38 -31 -65 -165 -104 -102 -143 -0 -0 -202 -166 -158 -0 -0
-11 -22 -0 -2 -0 -0 -0 -0 -0 -0 -0 -129 -80 -27 -6 -37 -13 -0 -11 -36 -43 -59 -41 -34 -27 -26 -35 -35 -60 -70 -102 -100 -79 -63 -83 -72 -72 -85 -109 -153 -98 -132 -152 -193 -10 -188 -186 -108 -0
-22 -15 -38 -89 -25 -104 -37 -0 -0 -0 -23 -91 -58 -112 -162 -95 -0 -2 -6 -36 -22 -21 -17 -31 -23 -25 -29 -36 -71 -163 -198 -99 -83 -169 -164 -135 -83 -106 -139 -163 -123 -133 -176 -211 -199 -215 -158 -194 -0
-10 -0 -53 -69 -4 -23 -143 -0 -170 -0 -0 -0 -0 -84 -102 -30 -0 -0 -21 -14 -7 -24 -39 -34 -22 -26 -17 -27 -52 -82 -171 -151 -111 -108 -137 -127 -124 -112 -135 -154 -195 -162 -195 -232 -225 -198 -197 -52 -0
-0 -5 -2 -0 -0 -91 -83 -115 -31 -0 -0 -0 -85 -86 -77 -13 -0 -0 -3 -30 -52 -42 -56 -52 -18 -12 -20 -24 -30 -52 -98 -188 -176 -136 -131 -142 -143 -146 -166 -160 -195 -171 -0 -149 -0 -0 -0 -0 -0
-0 -1 -1 -38 -82 -71 -58 -99 -8 -0 -0 -0 -0 -48 -83 -27 -1 -0 -0 -8 -27 -32 -36 -47 -25 -6 -13 -17 -16 -31 -56 -95 -148 -205 -224 -189 -172 -180 -184 -149 -0 -0 -0 -0 -0 -0 -0 -0 -0
-6 -0 -9 -53 -57 -59 -92 -124 -42 -0 -0 -0 -0 -43 -48 -30 -30 -0 -0 -0 -1 -9 -4 -27 -2 -5 -0 -1 -16 -22 -19 -45 -84 -147 -178 -155 -129 -134 -154 -118 -0 -0 -0 -0 -0 -0 -0 -0 -0
-4 -0 -0 -24 -22 -5 -45 -151 -107 -20 -0 -0 -0 -0 -78 -48 -43 -34 -2 -0 -2 -8 -5 -13 -6 -0 -0 -0 -2 -3 -3 -14 -44 -66 -90 -135 -122 -115 -133 -104 -0 -0 -0 -0 -0 -0 -0 -0 -0
-4 -0 -0 -15 -13 -15 -0 -0 -0 -0 -0 -0 -0 -44 -83 -50 -55 -44 -9 -7 -10 -47 -29 -16 -13 -0 -0 -0 -0 -0 -0 -8 -17 -27 -49 -64 -81 -91 -97 -99 -0 -0 -0 -0 -0 -0 -0 -0 -0
-1 -5 -0 -0 -5 -7 -10 -131 -2 -0 -0 -0 -0 -11 -50 -39 -61 -67 -37 -17 -26 -12 -7 -1 -8 -0 -0 -0 -0 -0 -0 -0 -2 -8 -21 -41 -43 -43 -47 -59 -61 -23 -0 -0 -0 -0 -0 -0 -0
-0 -0 -0 -0 -0 -2 -10 -0 -0 -0 -0 -0 -0 -0 -33 -25 -68 -79 -64 -32 -20 -19 -16 -18 -19 -6 -0 -0 -0 -0 -0 -2 -2 -3 -1 -6 -23 -30 -29 -21 -21 -40 -50 -55 -53 -31 -0 -34 -21
-0 -0 -0 -0 -0 -0 -0 -0 -0 -0 -0 -0 -0 -0 -21 -26 -55 -85 -87 -37 -31 -15 -20 -16 -36 -12 -1 -0 -0 -0 -0 -1 -2 -0 -1 -5 -8 -19 -20 -21 -15 -12 -32 -20 -11 -10 -6 -10 -6
-0 -0 -0 -0 -9 -1 -0 -0 -0 -0 -0 -0 -0 -42 -0 -26 -43 -70 -80 -35 -30 -56 -79 -61 -33 -27 -13 -2 -0 -0 -4 -6 -5 -8 -10 -12 -21 -34 -17 -31 -21 -24 -6 -6 -3 -3 -5 -10 -7
-3 -0 -0 -0 -0 -3 -0 -0 -0 -0 -0 -0 -0 -0 -0 -24 -32 -47 -42 -34 -19 -26 -58 -78 -79 -40 -43 -32 -7 -5 -9 -12 -11 -25 -33 -29 -22 -28 -37 -29 -19 -16 -11 -9 -9 -9 -10 -17 -0
-0 -0 -0 -0 -0 -6 -0 -0 -0 -0 -0 -0 -0 -0 -0 -25 -15 -57 -45 -59 -76 -50 -36 -43 -66 -78 -65 -64 -46 -24 -23 -27 -28 -29 -35 -21 -19 -17 -16 -21 -14 -17 -17 -15 -12 -5 -5 -0 -0
-0 -0 -0 -3 -0 -0 -1 -0 -0 -0 -0 -0 -0 -0 -0 -0 -33 -43 -57 -58 -12 -0 -17 -15 -58 -46 -46 -45 -25 -17 -18 -8 -21 -26 -40 -49 -28 -24 -23 -30 -36 -0 -0 -4 -10 -0 -0 -0 -0
-1 -0 -2 -3 -0 -0 -0 -0 -0 -0 -0 -0 -0 -0 -0 -0 -14 -23 -40 -0 -0 -0 -0 -0 -0 -48 -48 -39 -41 -58 -0 -0 -0 -0 -0 -0 -0 -0 -0 -0 -0 -0 -0 -1 -1 -0 -0 -6 -7
-9 -1 -5 -6 -0 -0 -0 -0 -0 -0 -0 -0 -0 -0 -0 -6 -4 -2 -2 -0 -0 -0 -0 -0 -0 -0 -0 -0 -0 -0 -0 -0 -0 -0 -0 -0 -0 -0 -0 -0 -0 -0 -0 -0 -0 -12 -15 -1 -0
-3 -0 -0 -0 -0 -0 -0 -0 -0 -0 -0 -0 -0 -0 -0 -43 -30 -1 -0 -0 -0 -0 -0 -0 -0 -0 -0 -0 -0 -0 -0 -0 -0 -0 -0 -0 -0 -0 -0 -0 -0 -0 -0 -0 -0 -0 -1 -0 -1
-0 -0 -0 -0 -0 -0 -0 -0 -0 -0 -0 -0 -0 -0 -0 -0 -0 -0 -0 -0 -0 -0 -0 -0 -0 -0 -0 -0 -0 -0 -0 -0 -0 -0 -0 -0 -0 -0 -0 -0 -0 -0 -0 -0 -0 -0 -0 -2 -2
-0 -0 -0 -0 -0 -0 -0 -0 -0 -0 -0 -0 -0 -0 -0 -0 -0 -0 -0 -0 -0 -0 -3 -0 -0 -0 -0 -0 -0 -0 -0 -0 -0 -0 -0 -0 -0 -0 -0 -0 -0 -0 -0 -0 -0 -0 -0 -1 -1
-0 -0 -0 -0 -0 -0 -0 -0 -0 -0 -0 -0 -0 -0 -0 -0 -0 -0 -0 -0 -0 -0 -0 -0 -0 -0 -0 -0 -0 -0 -0 -0 -0 -0 -0 -0 -0 -0 -0 -0 -0 -0 -0 -0 -0 -0 -0 -0 -0
-0 -0 -0 -0 -0 -0 -0 -0 -0 -0 -0 -0 -0 -0 -0 -0 -0 -0 -0 -0 -0 -0 -0 -0 -0 -0 -0 -0 -0 -0 -0 -0 -0 -0 -0 -0 -0 -0 -0 -0 -0 -0 -0 -0 -0 -0 -0 -0 -0
-0 -0 -0 -0 -0 -0 -0 -0 -0 -0 -0 -0 -0 -0 -0 -0 -0 -0 -0 -0 -0 -0 -0 -0 -0 -0 -0 -0 -0 -0 -0 -0 -0 -0 -0 -0 -0 -0 -0 -0 -0 -0 -0 -0 -0 -0 -0 -0 -0
Wind_Speed
53 nan nan nan nan nan nan nan nan nan nan nan nan nan nan 32 22 26 17 18 25 20 21 17 18 16 15 15 17 17 17 16 14 12 11 10 14 nan nan nan nan nan nan nan nan nan nan nan nan
55 nan nan nan nan nan nan nan nan nan nan nan nan nan nan nan 31 30 23 18 22 21 20 18 18 19 17 19 17 16 15 13 11 11 10 10 14 nan nan nan nan nan nan nan nan nan nan nan nan
54 nan nan nan nan nan nan nan nan nan nan nan nan nan 37 36 34 27 31 24 25 22 19 22 19 20 20 19 17 15 12 13 12 11 nan 10 13 17 nan nan nan nan nan nan nan nan nan nan nan
54 nan nan nan nan nan nan nan nan nan nan nan nan 38 39 39 32 31 30 28 25 24 21 25 21 22 21 19 18 14 12 14 11 nan nan nan 12 19 nan nan nan nan nan nan nan nan nan nan nan
55 nan nan nan nan nan nan nan nan nan nan nan nan 43 42 41 37 32 34 29 28 24 23 22 23 23 21 18 17 12 15 13 12 13 nan 13 14 20 nan nan nan nan nan nan nan nan nan nan nan
51 nan nan nan nan nan nan nan nan nan nan nan nan 42 45 43 40 37 35 34 29 25 22 24 24 24 22 17 16 16 17 13 12 13 14 13 15 20 19 nan nan nan nan nan nan nan nan nan nan
42 nan nan nan nan nan nan nan nan nan nan nan 45 44 47 44 42 38 33 38 30 25 21 22 22 23 22 20 18 17 15 13 11 11 14 14 20 19 19 nan nan nan nan nan nan nan nan nan nan
46 45 nan nan nan nan nan nan nan nan nan nan 48 50 49 49 42 42 38 38 31 25 22 21 22 21 18 18 18 17 16 14 12 12 18 19 18 16 15 14 nan nan nan nan nan nan nan nan nan
nan 41 39 nan nan nan nan nan nan nan nan nan nan nan 49 45 42 41 39 37 32 25 22 20 22 21 19 18 19 18 18 17 19 19 19 18 17 16 nan nan nan nan nan nan nan nan nan nan nan
46 nan nan nan nan nan nan nan nan nan nan nan nan nan 54 46 44 40 40 38 32 27 25 21 20 22 21 21 18 17 18 15 15 15 16 nan nan nan nan nan nan nan nan nan nan nan nan nan nan
40 nan nan nan nan nan nan nan nan nan nan nan nan nan 55 51 45 41 40 40 35 30 29 24 23 22 23 22 21 19 17 nan nan 15 16 nan nan nan nan nan nan nan nan nan nan nan nan nan nan
36 nan nan 44 52 nan nan nan nan nan nan nan nan nan 57 50 44 40 38 37 36 35 30 27 23 23 22 24 21 19 18 18 nan nan nan nan nan nan nan nan nan nan nan nan nan nan nan nan nan
nan 41 nan nan nan nan nan nan nan nan nan nan nan nan nan 54 44 40 35 36 37 33 31 28 27 25 23 24 22 22 19 17 18 19 nan nan nan nan nan nan nan nan nan nan nan nan nan nan nan
nan 35 42 nan nan nan nan nan nan nan nan nan nan nan nan 62 53 40 35 35 34 34 31 29 27 27 23 24 23 23 21 19 20 19 19 nan nan nan nan nan nan nan nan nan nan nan nan nan nan
nan nan 41 nan nan nan nan nan nan nan nan nan nan nan nan 60 58 47 38 36 34 33 31 29 26 26 22 23 24 25 25 23 22 21 21 21 22 21 nan nan nan nan nan nan nan nan nan nan nan
nan nan nan nan nan nan nan nan nan nan nan nan nan nan nan nan 56 53 43 36 34 31 28 31 32 27 27 27 28 29 28 27 26 25 25 24 23 23 23 nan nan nan nan nan nan nan nan nan nan
nan nan nan nan nan nan nan nan nan nan nan nan nan nan nan 54 nan nan 49 40 37 33 33 32 34 32 30 29 31 31 31 30 29 28 27 24 24 24 24 26 26 nan nan nan nan nan nan nan nan
nan nan nan nan nan nan nan nan nan nan nan nan nan nan nan nan nan nan nan 45 43 38 35 35 39 36 33 35 34 36 34 31 30 29 27 27 27 26 27 28 28 28 nan nan nan nan nan nan nan
nan nan nan nan nan nan nan nan nan nan nan nan nan nan nan nan nan nan 49 46 46 41 38 39 41 37 41 40 39 36 34 33 33 33 30 30 29 28 29 30 30 30 30 29 31 31 31 nan nan
nan nan nan nan nan nan nan nan nan nan nan nan nan nan nan nan nan nan 46 47 46 43 43 38 41 39 40 44 41 41 40 38 38 40 37 34 32 32 32 32 32 32 33 32 33 nan nan nan nan
nan nan nan nan nan nan nan nan nan nan nan nan nan nan nan nan nan nan nan nan nan 46 45 45 42 41 38 40 42 44 46 45 43 42 41 40 37 35 33 33 33 34 35 34 35 37 38 38 41
nan nan nan nan nan nan nan nan nan nan nan nan nan nan nan nan nan nan nan nan nan nan nan nan 50 50 49 47 43 41 45 44 47 47 47 46 46 45 43 41 39 37 40 39 38 40 41 41 41
nan nan nan nan nan nan nan nan nan nan nan nan nan nan nan nan nan nan nan nan nan nan nan nan nan nan 55 54 51 nan nan nan nan nan nan nan nan nan nan nan nan nan nan nan nan 42 42 44 nan
nan nan nan nan nan nan nan nan nan nan nan nan nan nan nan nan nan nan nan nan nan nan nan nan nan nan nan nan nan nan nan nan nan nan nan nan nan nan nan nan nan nan nan nan nan nan nan 50 nan
nan nan nan nan nan nan nan nan nan nan nan nan nan nan nan nan nan nan nan nan nan nan nan nan nan nan nan nan nan nan nan nan nan nan nan nan nan nan nan nan nan nan nan nan nan nan nan nan nan
nan nan nan nan nan nan nan nan nan nan nan nan nan nan nan nan nan nan nan nan nan nan nan nan nan nan nan nan nan nan nan nan nan nan nan nan nan nan nan nan nan nan nan nan nan nan nan nan nan
nan nan nan nan nan nan nan nan nan nan nan nan nan nan nan nan nan nan nan nan nan nan nan nan nan nan nan nan nan nan nan nan nan nan nan nan nan nan nan nan nan nan nan nan nan nan nan nan nan
nan nan nan nan nan nan nan nan nan nan nan nan nan nan nan nan nan nan nan nan nan nan nan nan nan nan nan nan nan nan nan nan nan nan nan nan nan nan nan nan nan nan nan nan nan nan nan nan nan
nan nan nan nan nan nan nan nan nan nan nan nan nan nan nan nan nan nan nan nan nan nan nan nan nan nan nan nan nan nan nan nan nan nan nan nan nan nan nan nan nan nan nan nan nan nan nan nan nan
nan nan nan nan nan nan nan nan nan nan nan nan nan nan nan nan nan nan nan nan nan nan nan nan nan nan nan nan nan nan nan nan nan nan nan nan nan nan nan nan nan nan nan nan nan nan nan nan nan
Wind_Direction
208 nan nan nan nan nan nan nan nan nan nan nan nan nan nan 200 216 221 238 243 275 286 287 297 291 292 293 288 282 279 280 273 268 267 280 286 285 nan nan nan nan nan nan nan nan nan nan nan nan
211 nan nan nan nan nan nan nan nan nan nan nan nan nan nan nan 215 226 250 250 284 282 282 296 293 293 290 288 288 282 278 279 276 277 282 295 294 nan nan nan nan nan nan nan nan nan nan nan nan
210 nan nan nan nan nan nan nan nan nan nan nan nan nan 215 219 219 241 234 264 276 281 286 282 292 291 289 291 286 278 275 273 270 280 nan 292 295 292 nan nan nan nan nan nan nan nan nan nan nan
213 nan nan nan nan nan nan nan nan nan nan nan nan 225 223 216 225 229 248 263 271 280 285 281 283 283 282 284 280 283 286 276 277 nan nan nan 297 291 nan nan nan nan nan nan nan nan nan nan nan
214 nan nan nan nan nan nan nan nan nan nan nan nan 223 223 222 222 236 252 255 266 275 277 289 282 280 275 275 276 278 276 278 282 284 nan 298 296 299 nan nan nan nan nan nan nan nan nan nan nan
216 nan nan nan nan nan nan nan nan nan nan nan nan 222 224 221 230 238 250 257 257 266 273 279 277 272 270 265 263 264 269 274 285 290 290 296 299 299 298 nan nan nan nan nan nan nan nan nan nan
211 nan nan nan nan nan nan nan nan nan nan nan 211 219 223 226 226 235 242 251 256 262 267 273 277 270 256 261 257 258 265 270 279 283 290 290 298 303 304 nan nan nan nan nan nan nan nan nan nan
208 208 nan nan nan nan nan nan nan nan nan nan 209 219 225 223 225 233 239 245 249 251 262 267 266 269 263 262 253 257 258 265 273 269 275 279 284 293 295 311 nan nan nan nan nan nan nan nan nan
nan 207 210 nan nan nan nan nan nan nan nan nan nan nan 213 214 234 238 238 243 245 244 250 256 259 257 254 254 250 251 256 260 268 273 275 302 298 312 nan nan nan nan nan nan nan nan nan nan nan
211 nan nan nan nan nan nan nan nan nan nan nan nan nan 220 226 235 236 245 244 248 251 248 246 248 251 248 241 251 249 256 262 272 283 292 nan nan nan nan nan nan nan nan nan nan nan nan nan nan
214 nan nan nan nan nan nan nan nan nan nan nan nan nan 220 222 231 234 241 245 247 248 247 243 240 246 249 243 239 236 241 nan nan 266 271 nan nan nan nan nan nan nan nan nan nan nan nan nan nan
213 nan nan 217 214 nan nan nan nan nan nan nan nan nan 223 224 228 229 241 248 252 251 245 241 240 238 244 243 241 241 242 250 nan nan nan nan nan nan nan nan nan nan nan nan nan nan nan nan nan
nan 216 nan nan nan nan nan nan nan nan nan nan nan nan nan 225 225 225 228 240 248 253 251 243 242 242 239 244 243 242 242 249 261 267 nan nan nan nan nan nan nan nan nan nan nan nan nan nan nan
nan 208 221 nan nan nan nan nan nan nan nan nan nan nan nan 226 223 224 226 239 243 244 247 246 243 244 241 244 250 250 249 251 256 264 270 nan nan nan nan nan nan nan nan nan nan nan nan nan nan
nan nan 212 nan nan nan nan nan nan nan nan nan nan nan nan 224 225 221 225 230 236 238 242 247 243 241 243 249 250 251 252 253 256 261 270 275 275 275 nan nan nan nan nan nan nan nan nan nan nan
nan nan nan nan nan nan nan nan nan nan nan nan nan nan nan nan 224 221 220 229 236 239 248 247 245 244 247 245 247 246 251 255 258 261 264 272 275 278 279 nan nan nan nan nan nan nan nan nan nan
nan nan nan nan nan nan nan nan nan nan nan nan nan nan nan 224 nan nan 221 228 235 241 243 248 247 247 245 244 244 247 252 255 257 259 261 269 276 282 282 282 284 nan nan nan nan nan nan nan nan
nan nan nan nan nan nan nan nan nan nan nan nan nan nan nan nan nan nan nan 226 234 240 244 247 243 237 244 240 241 244 248 253 255 256 260 268 272 278 280 281 285 289 nan nan nan nan nan nan nan
nan nan nan nan nan nan nan nan nan nan nan nan nan nan nan nan nan nan 221 226 234 237 247 251 252 240 240 241 242 244 249 251 255 259 263 267 271 274 278 279 284 288 293 298 299 298 300 nan nan
nan nan nan nan nan nan nan nan nan nan nan nan nan nan nan nan nan nan 227 227 232 235 240 248 251 249 245 245 245 244 246 248 251 255 260 266 271 276 277 281 283 289 290 295 297 nan nan nan nan
nan nan nan nan nan nan nan nan nan nan nan nan nan nan nan nan nan nan nan nan nan 237 239 243 245 240 241 245 244 249 250 251 253 257 260 266 268 272 275 279 283 287 290 290 294 297 302 298 299
nan nan nan nan nan nan nan nan nan nan nan nan nan nan nan nan nan nan nan nan nan nan nan nan 248 253 253 253 254 256 255 255 256 258 262 266 265 268 269 273 277 281 285 289 289 290 294 295 299
nan nan nan nan nan nan nan nan nan nan nan nan nan nan nan nan nan nan nan nan nan nan nan nan nan nan 253 255 259 nan nan nan nan nan nan nan nan nan nan nan nan nan nan nan nan 291 293 293 nan
nan nan nan nan nan nan nan nan nan nan nan nan nan nan nan nan nan nan nan nan nan nan nan nan nan nan nan nan nan nan nan nan nan nan nan nan nan nan nan nan nan nan nan nan nan nan nan 295 nan
nan nan nan nan nan nan nan nan nan nan nan nan nan nan nan nan nan nan nan nan nan nan nan nan nan nan nan nan nan nan nan nan nan nan nan nan nan nan nan nan nan nan nan nan nan nan nan nan nan
nan nan nan nan nan nan nan nan nan nan nan nan nan nan nan nan nan nan nan nan nan nan nan nan nan nan nan nan nan nan nan nan nan nan nan nan nan nan nan nan nan nan nan nan nan nan nan nan nan
nan nan nan nan nan nan nan nan nan nan nan nan nan nan nan nan nan nan nan nan nan nan nan nan nan nan nan nan nan nan nan nan nan nan nan nan nan nan nan nan nan nan nan nan nan nan nan nan nan
nan nan nan nan nan nan nan nan nan nan nan nan nan nan nan nan nan nan nan nan nan nan nan nan nan nan nan nan nan nan nan nan nan nan nan nan nan nan nan nan nan nan nan nan nan nan nan nan nan
nan nan nan nan nan nan nan nan nan nan nan nan nan nan nan nan nan nan nan nan nan nan nan nan nan nan nan nan nan nan nan nan nan nan nan nan nan nan nan nan nan nan nan nan nan nan nan nan nan
nan nan nan nan nan nan nan nan nan nan nan nan nan nan nan nan nan nan nan nan nan nan nan nan nan nan nan nan nan nan nan nan nan nan nan nan nan nan nan nan nan nan nan nan nan nan nan nan nan